Weather History for Warroad, MN

Change the Weather History Date:

Sunday, October 9, 2011

  Actual Average Record
Temperature  
Mean Temperature 47 °F -  
Max Temperature 57 °F 55 °F 80 °F (1960)
Min Temperature 37 °F 34 °F 19 °F (1993)
Degree Days  
Heating Degree Days 18    
Moisture  
Dew Point 43 °F    
Average Humidity 79    
Maximum Humidity 93    
Minimum Humidity 67    
Precipitation  
Precipitation 0.00 in - - ()
Sea Level Pressure  
Sea Level Pressure 30.25 in    
Wind  
Wind Speed 4 mph (ENE)    
Max Wind Speed 16 mph    
Max Gust Speed 23 mph    
Visibility 9 miles    
Events Rain    
Averages and records for this station are not official NWS values.
T = Trace of Precipitation, MM = Missing Value Source: NWS Daily Summary

Daily Weather History Graph

Daily Weather History Graph

Search for Another Location

Airport:

Trip Planner

Search our weather history database for the weather conditions in past years. The results will help you decide how hot, cold, wet, or windy it might be!

Date:

Astronomy

Oct. 09, 2011 Rise Set
Actual Time 7:32 AM CDT 6:44 PM CDT
Civil Twilight 7:00 AM CDT 7:15 PM CDT
Nautical Twilight 6:24 AM CDT 7:52 PM CDT
Astronomical Twilight 5:47 AM CDT 8:29 PM CDT
Moon 5:26 PM CDT (10/9) 5:10 AM CDT (10/9)
Length of Visible Light 12h 14m
Length of Day
11h 11m
Waxing Gibbous, 95% of the Moon is Illuminated
Oct 9
Waxing Gibbous
Oct 11
Full
Oct 19
Last Quarter
Oct 26
New
Nov 2
First Quarter

Hourly Weather History & Observations

Time (CDT) Temp. Windchill Dew Point Humidity Pressure Visibility Wind Dir Wind Speed Gust Speed Precip Events Conditions
12:14 AM 53.6 °F - 46.4 °F 77% 30.16 in 10.0 mi West 5.8 mph - N/A   Clear
12:34 AM 51.8 °F - 46.4 °F 82% 30.17 in 10.0 mi WNW 4.6 mph - N/A   Clear
12:54 AM 51.8 °F - 46.4 °F 82% 30.17 in 10.0 mi Calm Calm - N/A   Clear
1:14 AM 51.8 °F - 44.6 °F 76% 30.18 in 10.0 mi Calm Calm - N/A   Clear
1:34 AM 50.0 °F - 44.6 °F 82% 30.17 in 10.0 mi Calm Calm - N/A   Clear
1:54 AM 48.2 °F - 44.6 °F 87% 30.18 in 10.0 mi NW 3.5 mph - N/A   Clear
2:14 AM 48.2 °F - 44.6 °F 87% 30.19 in 10.0 mi WNW 3.5 mph - N/A   Clear
2:34 AM 46.4 °F - 42.8 °F 87% 30.20 in 10.0 mi Calm Calm - N/A   Clear
2:54 AM 42.8 °F - 37.4 °F 81% 30.20 in 10.0 mi Calm Calm - N/A   Clear
3:14 AM 42.8 °F - 39.2 °F 87% 30.22 in 10.0 mi Calm Calm - N/A   Clear
3:34 AM 42.8 °F - 39.2 °F 87% 30.22 in 10.0 mi Calm Calm - N/A   Clear
3:54 AM 41.0 °F - 37.4 °F 87% 30.22 in 10.0 mi Calm Calm - N/A   Clear
4:14 AM 39.2 °F - 37.4 °F 93% 30.23 in 7.0 mi Calm Calm - N/A   Clear
4:34 AM 41.0 °F - 37.4 °F 87% 30.23 in 7.0 mi Calm Calm - N/A   Clear
4:54 AM 39.2 °F - 35.6 °F 87% 30.23 in 7.0 mi Calm Calm - N/A   Clear
5:14 AM 39.2 °F - 35.6 °F 87% 30.25 in 7.0 mi Calm Calm - N/A   Clear
5:34 AM 39.2 °F - 35.6 °F 87% 30.24 in 7.0 mi Calm Calm - N/A   Clear
5:53 AM 37.4 °F 33.8 °F 35.6 °F 93% 30.26 in 5.0 mi South 4.6 mph - N/A   Clear
6:33 AM 39.2 °F - 35.6 °F 87% 30.27 in 7.0 mi Calm Calm - N/A   Clear
6:54 AM 39.2 °F - 35.6 °F 87% 30.27 in 7.0 mi Calm Calm - N/A   Clear
7:14 AM 37.4 °F - 33.8 °F 87% 30.28 in 7.0 mi Calm Calm - N/A   Clear
7:33 AM 39.2 °F - 35.6 °F 87% 30.29 in 7.0 mi Calm Calm - N/A   Clear
8:14 AM 39.2 °F - 35.6 °F 87% 30.30 in 7.0 mi Calm Calm - N/A   Clear
8:34 AM 42.8 °F 41.1 °F 37.4 °F 81% 30.30 in 5.0 mi NW 3.5 mph - N/A   Clear
8:54 AM 42.8 °F - 37.4 °F 81% 30.31 in 5.0 mi Calm Calm - N/A   Clear
9:14 AM 44.6 °F 43.1 °F 41.0 °F 87% 30.30 in 7.0 mi North 3.5 mph - N/A   Clear
9:34 AM 48.2 °F - 44.6 °F 87% 30.30 in 10.0 mi NNE 4.6 mph - N/A   Clear
9:54 AM 50.0 °F - 44.6 °F 82% 30.32 in 10.0 mi Calm Calm - N/A   Clear
10:14 AM 51.8 °F - 46.4 °F 82% 30.32 in 10.0 mi East 9.2 mph - N/A   Clear
10:34 AM 53.6 °F - 48.2 °F 82% 30.32 in 10.0 mi East 6.9 mph - N/A   Clear
10:54 AM 53.6 °F - 48.2 °F 82% 30.33 in 10.0 mi East 5.8 mph - N/A   Clear
11:14 AM 53.6 °F - 48.2 °F 82% 30.31 in 10.0 mi East 4.6 mph - N/A   Clear
11:33 AM 55.4 °F - 48.2 °F 77% 30.31 in 10.0 mi East 5.8 mph - N/A   Clear
11:54 AM 55.4 °F - 48.2 °F 77% 30.31 in 10.0 mi East 6.9 mph - N/A   Clear
12:14 PM 55.4 °F - 48.2 °F 77% 30.30 in 10.0 mi East 6.9 mph - N/A   Clear
12:33 PM 55.4 °F - 48.2 °F 77% 30.30 in 10.0 mi East 5.8 mph - N/A   Clear
12:54 PM 57.2 °F - 48.2 °F 72% 30.29 in 10.0 mi ENE 6.9 mph - N/A   Clear
1:14 PM 57.2 °F - 48.2 °F 72% 30.29 in 10.0 mi NE 6.9 mph - N/A   Clear
1:34 PM 57.2 °F - 46.4 °F 67% 30.28 in 10.0 mi ENE 8.1 mph - N/A   Clear
1:54 PM 57.2 °F - 48.2 °F 72% 30.28 in 10.0 mi ENE 8.1 mph - N/A   Clear
2:13 PM 57.2 °F - 48.2 °F 72% 30.27 in 10.0 mi NE 9.2 mph - N/A   Clear
2:34 PM 57.2 °F - 46.4 °F 67% 30.26 in 10.0 mi ENE 9.2 mph - N/A   Clear
2:54 PM 57.2 °F - 48.2 °F 72% 30.26 in 10.0 mi ENE 10.4 mph - N/A   Clear
3:14 PM 55.4 °F - 46.4 °F 72% 30.25 in 10.0 mi ENE 9.2 mph - N/A   Clear
3:34 PM 55.4 °F - 46.4 °F 72% 30.24 in 10.0 mi ENE 11.5 mph - N/A Rain Light Rain
3:54 PM 55.4 °F - 46.4 °F 72% 30.23 in 10.0 mi ENE 11.5 mph - N/A Rain Light Rain
4:14 PM 55.4 °F - 46.4 °F 72% 30.22 in 10.0 mi ENE 11.5 mph - N/A Rain Light Rain
4:34 PM 55.4 °F - 44.6 °F 67% 30.22 in 10.0 mi ENE 11.5 mph - N/A   Light Drizzle
4:54 PM 55.4 °F - 46.4 °F 72% 30.22 in 10.0 mi ENE 11.5 mph - N/A   Light Drizzle
5:13 PM 55.4 °F - 46.4 °F 72% 30.21 in 10.0 mi ENE 12.7 mph - N/A   Light Drizzle
5:34 PM 55.4 °F - 46.4 °F 72% 30.21 in 10.0 mi ENE 12.7 mph - N/A   Scattered Clouds
5:54 PM 55.4 °F - 46.4 °F 72% 30.20 in 10.0 mi ENE 13.8 mph 18.4 mph N/A   Scattered Clouds
6:13 PM 55.4 °F - 46.4 °F 72% 30.20 in 10.0 mi East 15.0 mph 18.4 mph N/A   Scattered Clouds
6:34 PM 55.4 °F - 46.4 °F 72% 30.19 in 10.0 mi ENE 15.0 mph - N/A   Mostly Cloudy
6:54 PM 55.4 °F - 46.4 °F 72% 30.19 in 10.0 mi ENE 16.1 mph 19.6 mph N/A   Light Drizzle
7:13 PM 55.4 °F - 46.4 °F 72% 30.17 in 10.0 mi ENE 15.0 mph 23.0 mph N/A   Overcast
7:34 PM 55.4 °F - 46.4 °F 72% 30.16 in 10.0 mi ENE 16.1 mph 20.7 mph N/A   Overcast
7:54 PM 57.2 °F - 48.2 °F 72% 30.16 in 10.0 mi East 13.8 mph 18.4 mph N/A   Overcast
8:13 PM 57.2 °F - 46.4 °F 67% 30.15 in 10.0 mi East 15.0 mph - N/A   Overcast
8:34 PM 57.2 °F - 44.6 °F 63% 30.15 in 10.0 mi East 12.7 mph - N/A   Overcast
8:54 PM 57.2 °F - 44.6 °F 63% 30.15 in 10.0 mi East 11.5 mph - N/A   Overcast
9:13 PM 57.2 °F - 44.6 °F 63% 30.15 in 10.0 mi East 11.5 mph - N/A   Overcast
9:34 PM 55.4 °F - 44.6 °F 67% 30.14 in 10.0 mi East 12.7 mph - N/A Rain Light Rain
9:54 PM 55.4 °F - 46.4 °F 72% 30.14 in 10.0 mi East 10.4 mph - N/A Rain Rain
10:13 PM 55.4 °F - 44.6 °F 67% 30.13 in 10.0 mi East 11.5 mph - N/A   Overcast
10:34 PM 55.4 °F - 44.6 °F 67% 30.12 in 10.0 mi East 11.5 mph 17.3 mph N/A   Mostly Cloudy
10:54 PM 55.4 °F - 44.6 °F 67% 30.12 in 10.0 mi East 16.1 mph - N/A   Overcast
11:14 PM 55.4 °F - 44.6 °F 67% 30.11 in 10.0 mi East 11.5 mph - N/A   Overcast
11:34 PM 55.4 °F - 44.6 °F 67% 30.11 in 10.0 mi East 11.5 mph - N/A   Overcast
11:54 PM 55.4 °F - 44.6 °F 67% 30.10 in 10.0 mi East 13.8 mph - N/A   Overcast